Time,TemperatureF,DewpointF,PressureIn,WindDirection,WindDirectionDegrees,WindSpeedMPH,WindSpeedGustMPH,Humidity,HourlyPrecipIn,Conditions,Clouds,dailyrainin,SoftwareType,DateUTC
2013-05-10 00:03:00,62.0,58.0,29.88,SE,135,3.0,4.0,88,0.01,,,0.04,,2013-05-10 04:03:00,
2013-05-10 00:12:00,62.0,58.0,29.88,SE,135,3.0,4.0,88,0.01,,,0.04,,2013-05-10 04:12:00,
2013-05-10 00:23:00,61.0,58.0,29.88,SSW,207,0.0,1.0,90,0.07,,,0.10,,2013-05-10 04:23:00,
2013-05-10 00:33:00,61.0,58.0,29.88,SSW,207,0.0,0.0,91,0.07,,,0.10,,2013-05-10 04:33:00,
2013-05-10 00:43:00,60.0,58.0,29.88,SSW,207,0.0,1.0,92,0.06,,,0.10,,2013-05-10 04:43:00,
2013-05-10 00:53:00,60.0,58.0,29.88,SSW,207,0.0,1.0,92,0.06,,,0.10,,2013-05-10 04:53:00,
2013-05-10 01:02:00,60.0,58.0,29.88,SSW,196,0.0,1.0,93,0.07,,,0.11,,2013-05-10 05:02:00,
2013-05-10 01:12:00,60.0,58.0,29.88,SSW,196,0.0,1.0,93,0.07,,,0.11,,2013-05-10 05:12:00,
2013-05-10 01:22:00,60.0,58.0,29.87,South,173,1.0,3.0,92,0.02,,,0.12,,2013-05-10 05:22:00,
2013-05-10 01:32:00,60.0,58.0,29.86,SE,133,4.0,7.0,92,0.03,,,0.13,,2013-05-10 05:32:00,
2013-05-10 01:42:00,60.0,58.0,29.84,SE,137,4.0,7.0,92,0.04,,,0.14,,2013-05-10 05:42:00,
2013-05-10 01:52:00,60.0,58.0,29.84,SE,137,4.0,7.0,92,0.04,,,0.14,,2013-05-10 05:52:00,
2013-05-10 02:02:00,60.0,58.0,29.83,SE,132,4.0,10.0,92,0.04,,,0.15,,2013-05-10 06:02:00,
2013-05-10 02:12:00,60.0,58.0,29.83,SE,132,4.0,10.0,92,0.04,,,0.15,,2013-05-10 06:12:00,
2013-05-10 02:21:00,60.0,58.0,29.81,SE,124,7.0,11.0,93,0.05,,,0.17,,2013-05-10 06:21:00,
2013-05-10 02:32:00,60.0,58.0,29.80,SE,137,9.0,17.0,93,0.04,,,0.17,,2013-05-10 06:32:00,
2013-05-10 02:42:00,60.0,58.0,29.80,SE,137,9.0,17.0,93,0.04,,,0.17,,2013-05-10 06:42:00,
2013-05-10 02:52:00,60.0,58.0,29.79,SSE,164,8.0,13.0,93,0.03,,,0.17,,2013-05-10 06:52:00,
2013-05-10 03:02:00,61.0,59.0,29.79,SE,144,6.0,13.0,92,0.02,,,0.17,,2013-05-10 07:02:00,
2013-05-10 03:12:00,61.0,59.0,29.79,SE,144,6.0,13.0,92,0.02,,,0.17,,2013-05-10 07:12:00,
2013-05-10 03:22:00,61.0,59.0,29.79,SSW,207,5.0,10.0,93,0.00,,,0.17,,2013-05-10 07:22:00,
2013-05-10 03:32:00,62.0,59.0,29.79,SSW,198,9.0,19.0,90,0.00,,,0.17,,2013-05-10 07:32:00,
2013-05-10 03:42:00,62.0,59.0,29.79,SSW,209,8.0,16.0,90,0.00,,,0.17,,2013-05-10 07:42:00,
2013-05-10 03:52:00,62.0,59.0,29.79,SSW,209,8.0,16.0,90,0.00,,,0.17,,2013-05-10 07:52:00,
2013-05-10 04:02:00,62.0,59.0,29.79,SSW,196,7.0,14.0,90,0.00,,,0.17,,2013-05-10 08:02:00,
2013-05-10 04:12:00,62.0,59.0,29.79,SSW,196,7.0,14.0,90,0.00,,,0.17,,2013-05-10 08:12:00,
2013-05-10 04:22:00,62.0,59.0,29.78,SW,216,7.0,13.0,90,0.00,,,0.17,,2013-05-10 08:22:00,
2013-05-10 04:32:00,62.0,59.0,29.79,SSW,195,6.0,13.0,91,0.00,,,0.17,,2013-05-10 08:32:00,
2013-05-10 04:42:00,62.0,59.0,29.79,SSW,195,6.0,13.0,91,0.00,,,0.17,,2013-05-10 08:42:00,
2013-05-10 04:52:00,62.0,59.0,29.79,SSW,201,6.0,13.0,91,0.00,,,0.17,,2013-05-10 08:52:00,
2013-05-10 05:01:00,61.0,58.0,29.79,South,190,7.0,10.0,91,0.00,,,0.17,,2013-05-10 09:01:00,
2013-05-10 05:11:00,61.0,58.0,29.79,South,190,7.0,10.0,91,0.00,,,0.17,,2013-05-10 09:11:00,
2013-05-10 05:21:00,61.0,59.0,29.78,SSW,211,2.0,8.0,92,0.00,,,0.17,,2013-05-10 09:21:00,
2013-05-10 05:33:00,61.0,59.0,29.78,SSW,206,2.0,10.0,92,0.00,,,0.17,,2013-05-10 09:33:00,
2013-05-10 05:43:00,61.0,59.0,29.78,SSW,206,2.0,10.0,92,0.00,,,0.17,,2013-05-10 09:43:00,
2013-05-10 05:53:00,61.0,59.0,29.78,SSW,210,1.0,7.0,92,0.00,,,0.17,,2013-05-10 09:53:00,
2013-05-10 06:03:00,60.0,58.0,29.78,WSW,241,1.0,5.0,92,0.00,,,0.17,,2013-05-10 10:03:00,
2013-05-10 06:12:00,60.0,58.0,29.78,WSW,241,1.0,5.0,92,0.00,,,0.17,,2013-05-10 10:12:00,
2013-05-10 06:23:00,60.0,58.0,29.77,SSW,199,1.0,4.0,93,0.00,,,0.17,,2013-05-10 10:23:00,
2013-05-10 06:32:00,60.0,58.0,29.76,SSW,198,2.0,4.0,93,0.00,,,0.17,,2013-05-10 10:32:00,
2013-05-10 06:42:00,60.0,58.0,29.76,SSW,198,2.0,4.0,93,0.00,,,0.17,,2013-05-10 10:42:00,
2013-05-10 06:53:00,59.0,57.0,29.77,SSW,198,4.0,7.0,93,0.00,,,0.17,,2013-05-10 10:53:00,
2013-05-10 07:02:00,59.0,57.0,29.77,SSW,204,3.0,7.0,94,0.00,,,0.17,,2013-05-10 11:02:00,
2013-05-10 07:12:00,59.0,57.0,29.77,SSW,204,3.0,7.0,94,0.00,,,0.17,,2013-05-10 11:12:00,
2013-05-10 07:22:00,60.0,58.0,29.77,South,188,5.0,8.0,94,0.00,,,0.17,,2013-05-10 11:22:00,
2013-05-10 07:32:00,60.0,58.0,29.78,South,186,4.0,9.0,94,0.00,,,0.17,,2013-05-10 11:32:00,
2013-05-10 07:42:00,60.0,58.0,29.78,South,186,4.0,9.0,94,0.00,,,0.17,,2013-05-10 11:42:00,
2013-05-10 07:52:00,61.0,59.0,29.77,SSW,198,2.0,8.0,93,0.00,,,0.17,,2013-05-10 11:52:00,
2013-05-10 08:02:00,61.0,59.0,29.78,SW,225,3.0,7.0,92,0.00,,,0.17,,2013-05-10 12:02:00,
2013-05-10 08:12:00,61.0,59.0,29.78,SW,225,3.0,7.0,92,0.00,,,0.17,,2013-05-10 12:12:00,
2013-05-10 08:22:00,62.0,59.0,29.78,SSW,211,2.0,9.0,91,0.00,,,0.17,,2013-05-10 12:22:00,
2013-05-10 08:32:00,62.0,59.0,29.78,SSW,206,3.0,10.0,90,0.00,,,0.17,,2013-05-10 12:32:00,
2013-05-10 08:42:00,62.0,59.0,29.78,SSW,206,3.0,10.0,90,0.00,,,0.17,,2013-05-10 12:42:00,
2013-05-10 08:52:00,63.0,60.0,29.78,SW,217,2.0,8.0,90,0.00,,,0.17,,2013-05-10 12:52:00,
2013-05-10 09:01:00,63.0,60.0,29.78,SSW,207,4.0,9.0,90,0.00,,,0.17,,2013-05-10 13:01:00,
2013-05-10 09:11:00,63.0,60.0,29.78,SSW,207,4.0,9.0,90,0.00,,,0.17,,2013-05-10 13:11:00,
2013-05-10 09:21:00,64.0,61.0,29.78,SSW,213,4.0,11.0,89,0.00,,,0.17,,2013-05-10 13:21:00,
2013-05-10 09:32:00,64.0,61.0,29.78,SW,232,4.0,9.0,89,0.00,,,0.17,,2013-05-10 13:32:00,
2013-05-10 09:42:00,64.0,61.0,29.78,SW,232,4.0,9.0,89,0.00,,,0.17,,2013-05-10 13:42:00,
2013-05-10 09:52:00,64.0,60.0,29.78,SW,225,6.0,13.0,87,0.00,,,0.17,,2013-05-10 13:52:00,
2013-05-10 10:02:00,65.0,61.0,29.78,SSW,201,5.0,9.0,87,0.00,,,0.17,,2013-05-10 14:02:00,
2013-05-10 10:11:00,65.0,61.0,29.78,SSW,201,5.0,9.0,87,0.00,,,0.17,,2013-05-10 14:11:00,
2013-05-10 10:21:00,66.0,61.0,29.77,WSW,244,8.0,13.0,83,0.00,,,0.17,,2013-05-10 14:21:00,
2013-05-10 10:32:00,66.0,60.0,29.77,West,259,7.0,12.0,82,0.00,,,0.17,,2013-05-10 14:32:00,
2013-05-10 10:42:00,66.0,60.0,29.77,West,259,7.0,12.0,82,0.00,,,0.17,,2013-05-10 14:42:00,
2013-05-10 10:52:00,66.0,60.0,29.77,West,259,7.0,12.0,82,0.00,,,0.17,,2013-05-10 14:52:00,
2013-05-10 11:02:00,67.0,61.0,29.78,SW,221,6.0,12.0,80,0.00,,,0.17,,2013-05-10 15:02:00,
2013-05-10 11:20:00,-999.0,-99.9,29.78,SW,221,6.0,12.0,80,0.00,,,0.17,,2013-05-10 15:20:00,
2013-05-10 11:32:00,68.0,61.0,29.78,West,265,9.0,14.0,78,0.00,,,0.17,,2013-05-10 15:32:00,
2013-05-10 11:42:00,68.0,62.0,29.78,West,275,9.0,14.0,80,0.00,,,0.17,,2013-05-10 15:42:00,
2013-05-10 11:53:00,68.0,62.0,29.78,West,275,9.0,14.0,80,0.00,,,0.17,,2013-05-10 15:53:00,
2013-05-10 12:02:00,68.0,61.0,29.78,West,265,7.0,15.0,79,0.00,,,0.17,,2013-05-10 16:02:00,
2013-05-10 12:12:00,68.0,61.0,29.78,West,265,7.0,15.0,79,0.00,,,0.17,,2013-05-10 16:12:00,
2013-05-10 12:23:00,69.0,61.0,29.78,West,261,9.0,15.0,75,0.00,,,0.17,,2013-05-10 16:23:00,
2013-05-10 12:33:00,70.0,61.0,29.78,WSW,258,8.0,15.0,73,0.00,,,0.17,,2013-05-10 16:33:00,
2013-05-10 12:43:00,69.0,60.0,29.78,WSW,256,8.0,15.0,72,0.00,,,0.17,,2013-05-10 16:43:00,
2013-05-10 12:53:00,69.0,60.0,29.78,WSW,256,8.0,15.0,72,0.00,,,0.17,,2013-05-10 16:53:00,
2013-05-10 13:02:00,69.0,60.0,29.78,West,263,8.0,13.0,72,0.00,,,0.17,,2013-05-10 17:02:00,
2013-05-10 13:12:00,69.0,60.0,29.78,West,263,8.0,13.0,72,0.00,,,0.17,,2013-05-10 17:12:00,
2013-05-10 13:22:00,71.0,59.0,29.78,WSW,241,7.0,13.0,67,0.00,,,0.17,,2013-05-10 17:22:00,
2013-05-10 13:32:00,69.0,60.0,29.79,WSW,242,5.0,13.0,72,0.00,,,0.17,,2013-05-10 17:32:00,
2013-05-10 13:42:00,69.0,59.0,29.78,West,263,5.0,12.0,71,0.00,,,0.17,,2013-05-10 17:42:00,
2013-05-10 13:52:00,69.0,59.0,29.78,West,263,5.0,12.0,71,0.00,,,0.17,,2013-05-10 17:52:00,
2013-05-10 14:10:00,-999.0,-99.9,29.78,SW,215,6.0,11.0,73,0.00,,,0.17,,2013-05-10 18:10:00,
2013-05-10 14:22:00,68.0,59.0,29.78,SW,224,7.0,12.0,73,0.00,,,0.17,,2013-05-10 18:22:00,
2013-05-10 14:34:00,68.0,59.0,29.78,SW,236,5.0,9.0,74,0.00,,,0.17,,2013-05-10 18:34:00,
2013-05-10 14:43:00,67.0,59.0,29.78,SSW,211,5.0,10.0,75,0.00,,,0.17,,2013-05-10 18:43:00,
2013-05-10 14:54:00,67.0,59.0,29.78,SSW,211,5.0,10.0,75,0.00,,,0.17,,2013-05-10 18:54:00,
2013-05-10 15:02:00,68.0,61.0,29.78,WSW,240,4.0,12.0,77,0.00,,,0.17,,2013-05-10 19:02:00,
2013-05-10 15:11:00,68.0,61.0,29.78,WSW,240,4.0,12.0,77,0.00,,,0.17,,2013-05-10 19:11:00,
2013-05-10 15:21:00,68.0,60.0,29.77,WSW,246,7.0,12.0,76,0.00,,,0.17,,2013-05-10 19:21:00,
2013-05-10 15:32:00,68.0,61.0,29.76,WSW,255,5.0,11.0,79,0.00,,,0.17,,2013-05-10 19:32:00,
2013-05-10 15:42:00,68.0,61.0,29.76,WSW,255,5.0,11.0,79,0.00,,,0.17,,2013-05-10 19:42:00,
2013-05-10 15:52:00,69.0,60.0,29.76,WSW,248,7.0,13.0,73,0.00,,,0.17,,2013-05-10 19:52:00,
2013-05-10 16:02:00,70.0,61.0,29.75,WSW,248,7.0,11.0,72,0.00,,,0.17,,2013-05-10 20:02:00,
2013-05-10 16:12:00,70.0,61.0,29.75,WSW,248,7.0,11.0,72,0.00,,,0.17,,2013-05-10 20:12:00,
2013-05-10 16:22:00,70.0,60.0,29.75,WSW,249,9.0,14.0,70,0.00,,,0.17,,2013-05-10 20:22:00,
2013-05-10 16:32:00,68.0,60.0,29.75,West,278,9.0,13.0,75,0.00,,,0.17,,2013-05-10 20:32:00,
2013-05-10 16:42:00,68.0,60.0,29.75,West,278,9.0,13.0,75,0.00,,,0.17,,2013-05-10 20:42:00,
2013-05-10 16:52:00,68.0,60.0,29.74,WSW,246,6.0,12.0,76,0.00,,,0.17,,2013-05-10 20:52:00,
2013-05-10 17:02:00,68.0,59.0,29.74,SW,230,4.0,9.0,74,0.00,,,0.17,,2013-05-10 21:02:00,
2013-05-10 17:11:00,68.0,59.0,29.74,SW,230,4.0,9.0,74,0.00,,,0.17,,2013-05-10 21:11:00,
2013-05-10 17:25:00,69.0,60.0,29.74,West,269,7.0,13.0,72,0.00,,,0.17,,2013-05-10 21:25:00,
2013-05-10 17:32:00,69.0,60.0,29.73,SW,221,9.0,14.0,72,0.00,,,0.17,,2013-05-10 21:32:00,
2013-05-10 17:43:00,69.0,60.0,29.73,SW,221,9.0,14.0,72,0.00,,,0.17,,2013-05-10 21:43:00,
2013-05-10 17:53:00,68.0,59.0,29.73,West,275,9.0,13.0,72,0.00,,,0.17,,2013-05-10 21:53:00,
2013-05-10 18:02:00,69.0,59.0,29.73,WSW,258,7.0,13.0,71,0.00,,,0.17,,2013-05-10 22:02:00,
2013-05-10 18:13:00,69.0,59.0,29.73,WSW,258,7.0,13.0,71,0.00,,,0.17,,2013-05-10 22:13:00,
2013-05-10 18:22:00,69.0,59.0,29.73,WSW,258,7.0,13.0,71,0.00,,,0.17,,2013-05-10 22:22:00,
2013-05-10 18:32:00,67.0,58.0,29.73,WSW,257,7.0,15.0,72,0.00,,,0.16,,2013-05-10 22:32:00,
2013-05-10 18:42:00,67.0,58.0,29.73,WSW,257,7.0,15.0,72,0.00,,,0.16,,2013-05-10 22:42:00,
2013-05-10 18:53:00,67.0,57.0,29.73,West,263,10.0,18.0,71,0.00,,,0.16,,2013-05-10 22:53:00,
2013-05-10 19:02:00,67.0,58.0,29.74,West,266,7.0,14.0,72,0.00,,,0.16,,2013-05-10 23:02:00,
2013-05-10 19:12:00,67.0,58.0,29.74,West,266,7.0,14.0,72,0.00,,,0.16,,2013-05-10 23:12:00,
2013-05-10 19:22:00,65.0,56.0,29.74,WNW,288,9.0,16.0,73,0.00,,,0.16,,2013-05-10 23:22:00,
2013-05-10 19:33:00,63.0,55.0,29.75,West,279,8.0,15.0,74,0.00,,,0.16,,2013-05-10 23:33:00,
2013-05-10 19:42:00,63.0,55.0,29.75,West,279,8.0,15.0,74,0.00,,,0.16,,2013-05-10 23:42:00,
2013-05-10 19:52:00,63.0,56.0,29.75,WNW,291,7.0,14.0,77,0.01,,,0.17,,2013-05-10 23:52:00,
2013-05-10 20:02:00,61.0,54.0,29.76,West,281,9.0,16.0,77,0.01,,,0.17,,2013-05-11 00:02:00,
2013-05-10 20:11:00,61.0,54.0,29.76,West,281,9.0,16.0,77,0.01,,,0.17,,2013-05-11 00:11:00,
2013-05-10 20:21:00,60.0,53.0,29.77,West,271,10.0,14.0,78,0.01,,,0.17,,2013-05-11 00:21:00,
2013-05-10 20:32:00,59.0,52.0,29.77,WNW,287,7.0,12.0,79,0.01,,,0.17,,2013-05-11 00:32:00,
2013-05-10 20:42:00,59.0,52.0,29.77,WNW,287,7.0,12.0,79,0.01,,,0.17,,2013-05-11 00:42:00,
2013-05-10 20:52:00,58.0,52.0,29.78,West,272,9.0,14.0,81,0.00,,,0.17,,2013-05-11 00:52:00,
2013-05-10 21:01:00,56.0,51.0,29.79,West,263,8.0,12.0,84,0.00,,,0.17,,2013-05-11 01:01:00,
2013-05-10 21:11:00,56.0,51.0,29.79,West,263,8.0,12.0,84,0.00,,,0.17,,2013-05-11 01:11:00,
2013-05-10 21:21:00,55.0,51.0,29.80,WNW,300,6.0,10.0,87,0.00,,,0.17,,2013-05-11 01:21:00,
2013-05-10 21:32:00,54.0,51.0,29.81,NW,312,8.0,13.0,88,0.00,,,0.17,,2013-05-11 01:32:00,
2013-05-10 21:42:00,54.0,51.0,29.81,NW,312,8.0,13.0,88,0.00,,,0.17,,2013-05-11 01:42:00,
2013-05-10 21:52:00,53.0,50.0,29.82,NW,305,8.0,12.0,89,0.00,,,0.17,,2013-05-11 01:52:00,
2013-05-10 22:02:00,52.0,49.0,29.83,NW,319,8.0,14.0,90,0.00,,,0.17,,2013-05-11 02:02:00,
2013-05-10 22:11:00,52.0,49.0,29.83,NW,319,8.0,14.0,90,0.00,,,0.17,,2013-05-11 02:11:00,
2013-05-10 22:22:00,51.0,48.0,29.84,NW,326,7.0,14.0,91,0.00,,,0.17,,2013-05-11 02:22:00,
2013-05-10 22:32:00,51.0,48.0,29.84,NW,323,6.0,10.0,91,0.00,,,0.17,,2013-05-11 02:32:00,
2013-05-10 22:42:00,51.0,48.0,29.84,NW,323,6.0,10.0,91,0.00,,,0.17,,2013-05-11 02:42:00,
2013-05-10 22:52:00,51.0,48.0,29.84,NW,311,8.0,13.0,89,0.00,,,0.17,,2013-05-11 02:52:00,
2013-05-10 23:01:00,50.0,47.0,29.85,North,360,5.0,12.0,89,0.00,,,0.17,,2013-05-11 03:01:00,
2013-05-10 23:11:00,50.0,47.0,29.85,North,360,5.0,12.0,89,0.00,,,0.17,,2013-05-11 03:11:00,
2013-05-10 23:21:00,49.0,46.0,29.85,NNW,343,7.0,12.0,90,0.00,,,0.15,,2013-05-11 03:21:00,
2013-05-10 23:33:00,48.0,45.0,29.85,NNW,328,7.0,13.0,90,0.00,,,0.15,,2013-05-11 03:33:00,
2013-05-10 23:42:00,48.0,45.0,29.85,NNW,328,7.0,13.0,90,0.00,,,0.15,,2013-05-11 03:42:00,
2013-05-10 23:53:00,48.0,45.0,29.86,NW,324,7.0,12.0,88,0.00,,,0.15,,2013-05-11 03:53:00,